This is the latest recevied weather packets stored in our database for station/object N2ZVN. If no packets are shown the sender has not sent any weather packets the latest 10 day(s).
| Time | Temp. | Humidity | Pressure | Rain* | Wind** | Luminosity | Snow |
|---|---|---|---|---|---|---|---|
| 1777395192 | 17.22° C | 53% | 1012.3 hPa | 0 mm | - | 358 W/m² | - |
| 1777394889 | 16.67° C | 52% | 1012.3 hPa | 0 mm | - | 307 W/m² | - |
| 1777394585 | 16.11° C | 54% | 1012.5 hPa | 0 mm | - | 234 W/m² | - |
| 1777394281 | 15.56° C | 57% | 1012.4 hPa | 0 mm | - | 162 W/m² | - |
| 1777393978 | 15.56° C | 57% | 1012.2 hPa | 0 mm | - | 115 W/m² | - |
| 1777393677 | 15.56° C | 57% | 1011.9 hPa | 0 mm | - | 132 W/m² | - |
| 1777393373 | 15.56° C | 58% | 1012.4 hPa | 0 mm | - | 112 W/m² | - |
| 1777393069 | 15.56° C | 57% | 1012.5 hPa | 0 mm | - | 135 W/m² | - |
| 1777392765 | 15.56° C | 58% | 1012.7 hPa | 0 mm | - | 170 W/m² | - |
| 1777392461 | 15° C | 55% | 1012.9 hPa | 0 mm | - | 123 W/m² | - |
| 1777392157 | 15° C | 57% | 1012.9 hPa | 0 mm | - | 131 W/m² | - |
| 1777391852 | 15° C | 60% | 1013 hPa | 0 mm | - | 115 W/m² | - |
| 1777391548 | 15° C | 59% | 1012.8 hPa | 0 mm | - | 85 W/m² | - |
| 1777391244 | 14.44° C | 62% | 1013.1 hPa | 0 mm | - | 86 W/m² | - |
| 1777390941 | 14.44° C | 63% | 1013.1 hPa | 0 mm | - | 108 W/m² | - |
| 1777390637 | 14.44° C | 61% | 1013 hPa | 0 mm | - | 89 W/m² | - |
| 1777390334 | 13.89° C | 63% | 1013.1 hPa | 0 mm | - | 76 W/m² | - |
| 1777390029 | 13.89° C | 65% | 1013 hPa | 0 mm | - | 80 W/m² | - |
| 1777389727 | 13.89° C | 67% | 1012.8 hPa | 0 mm | - | 77 W/m² | - |
| 1777389423 | 13.33° C | 68% | 1013 hPa | 0 mm | - | 84 W/m² | - |
| 1777389121 | 13.33° C | 71% | 1012.9 hPa | 0 mm | - | 63 W/m² | - |
| 1777388818 | 12.78° C | 69% | 1012.9 hPa | 0 mm | - | 63 W/m² | - |
| 1777388516 | 12.78° C | 72% | 1013 hPa | 0 mm | - | 95 W/m² | - |
| 1777388216 | 12.78° C | 77% | 1013.2 hPa | 0 mm | - | 78 W/m² | - |
| 1777387911 | 12.78° C | 77% | 1013.2 hPa | 0 mm | - | 103 W/m² | - |
* Rain latest hour (hover to see other rain measurements)
** Current wind speed in m/s (hover to see current wind gust speed)